BAW5 OERK-USHH

Flight info

Callsign BAW5
Flight time 2h 52m
Altitude 56000
Route TORKI Y518 HFR B417 KUA G667 ALSAN DCT GABSU G667 SAV B411 SOGOL G667 PUTMA B377 TIROM/K0850F560 L992 NAMOL T376 UTORA A925 RITNA T580 UNEKI R124 RILPA RILPA1H
Aircraft CONC/H-SDE2E3FGHIRYW/X

Departure

Time 2026-04-23 12:57
Airport King Khalid International Airport (OERK)

Arrival

Time 2026-04-23 15:49
Airport Khanty Mansiysk Airport (USHH)
Time Latitude Longitude Altitude Speed Heading
2026-04-23 12:13 24.96220 46.70300 2041 ft 0 kts 200°
2026-04-23 12:44 24.96233 46.70305 2044 ft 3 kts 200°
2026-04-23 12:44 24.96246 46.70310 2037 ft 3 kts 199°
2026-04-23 12:45 24.96265 46.70318 2042 ft 3 kts 199°
2026-04-23 12:45 24.96285 46.70325 2043 ft 3 kts 199°
2026-04-23 12:45 24.96304 46.70332 2043 ft 3 kts 199°
2026-04-23 12:45 24.96320 46.70339 2042 ft 3 kts 204°
2026-04-23 12:46 24.96337 46.70349 2042 ft 3 kts 228°
2026-04-23 12:46 24.96346 46.70366 2035 ft 3 kts 270°
2026-04-23 12:46 24.96342 46.70385 2044 ft 3 kts 306°
2026-04-23 12:46 24.96329 46.70400 2043 ft 2 kts 326°
2026-04-23 12:47 24.96325 46.70404 2044 ft 4 kts 328°
2026-04-23 12:50 24.96340 46.70399 2042 ft 6 kts 346°
2026-04-23 12:51 24.96387 46.70440 2041 ft 12 kts 64°
2026-04-23 12:51 24.96437 46.70543 2042 ft 17 kts 60°
2026-04-23 12:51 24.96442 46.70647 2038 ft 13 kts 134°
2026-04-23 12:51 24.96362 46.70695 2043 ft 14 kts 152°
2026-04-23 12:52 24.96268 46.70756 2037 ft 17 kts 148°
2026-04-23 12:52 24.96149 46.70831 2044 ft 23 kts 150°
2026-04-23 12:52 24.95986 46.70934 2041 ft 30 kts 149°
2026-04-23 12:52 24.95789 46.71059 2043 ft 35 kts 150°
2026-04-23 12:53 24.95575 46.71193 2044 ft 35 kts 150°
2026-04-23 12:53 24.95363 46.71329 2042 ft 35 kts 150°
2026-04-23 12:53 24.95158 46.71460 2044 ft 34 kts 149°
2026-04-23 12:53 24.94961 46.71588 2047 ft 32 kts 151°
2026-04-23 12:54 24.94767 46.71704 2046 ft 31 kts 150°
2026-04-23 12:54 24.94583 46.71822 2049 ft 30 kts 150°
2026-04-23 12:54 24.94406 46.71933 2045 ft 27 kts 150°
2026-04-23 12:54 24.94306 46.72047 2045 ft 16 kts 80°
2026-04-23 12:55 24.94350 46.72151 2047 ft 15 kts 64°
2026-04-23 12:55 24.94420 46.72229 2047 ft 14 kts 19°
2026-04-23 12:55 24.94611 46.72147 2046 ft 63 kts 330°
2026-04-23 12:55 24.95272 46.71725 2048 ft 156 kts 331°
2026-04-23 12:56 24.96486 46.70966 2109 ft 237 kts 334°
2026-04-23 12:56 24.97899 46.70106 2482 ft 222 kts 334°
2026-04-23 12:56 24.99214 46.69314 2509 ft 204 kts 335°
2026-04-23 12:56 25.00448 46.68703 2340 ft 192 kts 346°
2026-04-23 12:57 25.01765 46.68387 2338 ft 213 kts
2026-04-23 12:57 25.03396 46.68278 3217 ft 250 kts
2026-04-23 12:57 25.05184 46.67884 4173 ft 277 kts 342°
2026-04-23 12:57 25.07094 46.67144 5187 ft 293 kts 341°
2026-04-23 12:58 25.08946 46.66435 6716 ft 275 kts 341°
2026-04-23 12:58 25.10744 46.65915 8306 ft 260 kts 343°
2026-04-23 12:58 25.12406 46.65529 9164 ft 247 kts 342°
2026-04-23 12:58 25.14149 46.65071 9187 ft 263 kts 341°
2026-04-23 12:59 25.15967 46.64526 8485 ft 293 kts 340°
2026-04-23 12:59 25.18133 46.63811 8298 ft 348 kts 340°
2026-04-23 12:59 25.20597 46.63017 8564 ft 389 kts 341°
2026-04-23 12:59 25.23337 46.62145 8864 ft 431 kts 341°
2026-04-23 13:00 25.26349 46.61191 9398 ft 463 kts 341°
2026-04-23 13:00 25.29467 46.60202 10889 ft 468 kts 340°
2026-04-23 13:00 25.32600 46.59205 12073 ft 472 kts 340°
2026-04-23 13:00 25.35779 46.58190 13399 ft 479 kts 339°
2026-04-23 13:01 25.39016 46.57157 14673 ft 487 kts 339°
2026-04-23 13:01 25.42302 46.56109 15965 ft 494 kts 339°
2026-04-23 13:01 25.45637 46.55046 17162 ft 504 kts 339°
2026-04-23 13:01 25.49056 46.53954 17947 ft 519 kts 339°
2026-04-23 13:02 25.52547 46.52843 18377 ft 523 kts 339°
2026-04-23 13:02 25.56058 46.51724 18608 ft 525 kts 339°
2026-04-23 13:02 25.59565 46.50604 19031 ft 521 kts 339°
2026-04-23 13:02 25.63002 46.49505 19920 ft 521 kts 339°
2026-04-23 13:03 25.66492 46.48385 21003 ft 525 kts 339°
2026-04-23 13:03 25.70029 46.47251 22132 ft 534 kts 339°
2026-04-23 13:03 25.73622 46.46101 23689 ft 541 kts 339°
2026-04-23 13:03 25.77264 46.44936 25025 ft 547 kts 339°
2026-04-23 13:04 25.80957 46.43753 26298 ft 555 kts 338°
2026-04-23 13:04 25.84692 46.42553 27540 ft 563 kts 338°
2026-04-23 13:04 25.88480 46.41336 28749 ft 570 kts 338°
2026-04-23 13:04 25.92310 46.40105 29689 ft 577 kts 338°
2026-04-23 13:05 25.96185 46.38858 30352 ft 584 kts 338°
2026-04-23 13:05 26.00206 46.37942 30958 ft 600 kts 351°
2026-04-23 13:05 26.04442 46.38210 31478 ft 624 kts
2026-04-23 13:05 26.08625 46.39780 32127 ft 647 kts 23°
2026-04-23 13:06 26.16032 46.46054 33022 ft 691 kts 38°
2026-04-23 13:06 26.19709 46.49582 33460 ft 701 kts 34°
2026-04-23 13:06 26.23782 46.52552 33947 ft 701 kts 20°
2026-04-23 13:07 26.28287 46.54415 34298 ft 699 kts
2026-04-23 13:07 26.33087 46.55098 34583 ft 694 kts 353°
2026-04-23 13:07 26.37859 46.54519 34941 ft 687 kts 339°
2026-04-23 13:07 26.42414 46.52911 35240 ft 691 kts 334°
2026-04-23 13:08 26.46958 46.51061 35578 ft 701 kts 334°
2026-04-23 13:08 26.51622 46.49267 35942 ft 714 kts 335°
2026-04-23 13:08 26.56411 46.47619 36276 ft 727 kts 337°
2026-04-23 13:08 26.61311 46.46063 36604 ft 738 kts 338°
2026-04-23 13:09 26.66313 46.44541 36930 ft 748 kts 339°
2026-04-23 13:09 26.71392 46.43081 37268 ft 761 kts 342°
2026-04-23 13:09 26.76660 46.42033 37604 ft 774 kts 343°
2026-04-23 13:09 26.81997 46.41017 37938 ft 784 kts 344°
2026-04-23 13:10 26.87416 46.40026 38272 ft 792 kts 344°
2026-04-23 13:10 26.92878 46.39030 38446 ft 796 kts 344°
2026-04-23 13:10 26.98346 46.38030 38986 ft 793 kts 344°
2026-04-23 13:10 27.03742 46.37036 39304 ft 797 kts 344°
2026-04-23 13:11 27.09230 46.36023 39428 ft 803 kts 344°
2026-04-23 13:11 27.14784 46.34999 39538 ft 809 kts 344°
2026-04-23 13:11 27.20359 46.33970 39651 ft 816 kts 344°
2026-04-23 13:11 27.25980 46.32931 39763 ft 823 kts 344°
2026-04-23 13:12 27.31674 46.31876 39902 ft 832 kts 344°
2026-04-23 13:12 27.37416 46.30812 40039 ft 840 kts 344°
2026-04-23 13:12 27.43211 46.29738 40327 ft 848 kts 345°
2026-04-23 13:12 27.49059 46.28652 40684 ft 856 kts 345°
2026-04-23 13:13 27.54967 46.27553 41042 ft 866 kts 345°
2026-04-23 13:13 27.60941 46.26441 41435 ft 876 kts 345°
2026-04-23 13:13 27.66994 46.25313 41893 ft 887 kts 345°
2026-04-23 13:13 27.73134 46.24183 42415 ft 900 kts 345°
2026-04-23 13:14 27.79340 46.22953 42927 ft 912 kts 344°
2026-04-23 13:14 27.85641 46.21705 43504 ft 927 kts 345°
2026-04-23 13:14 27.92048 46.20435 44106 ft 943 kts 345°
2026-04-23 13:14 27.98575 46.19140 44657 ft 959 kts 345°
2026-04-23 13:15 28.05203 46.17824 45227 ft 975 kts 345°
2026-04-23 13:15 28.11930 46.16486 45791 ft 990 kts 345°
2026-04-23 13:15 28.18765 46.15126 46245 ft 1004 kts 345°
2026-04-23 13:15 28.25699 46.13744 46685 ft 1018 kts 345°
2026-04-23 13:16 28.32718 46.12345 47132 ft 1032 kts 346°
2026-04-23 13:16 28.39937 46.11484 47595 ft 1055 kts 355°
2026-04-23 13:16 28.47345 46.11903 48019 ft 1079 kts
2026-04-23 13:16 28.54783 46.13630 48389 ft 1103 kts 13°
2026-04-23 13:17 28.62055 46.16652 48658 ft 1125 kts 21°
2026-04-23 13:17 28.68902 46.20879 48951 ft 1145 kts 30°
2026-04-23 13:17 28.75339 46.26345 49260 ft 1163 kts 39°
2026-04-23 13:17 28.81114 46.32888 49589 ft 1179 kts 47°
2026-04-23 13:18 28.86100 46.40381 49812 ft 1193 kts 56°
2026-04-23 13:18 28.90171 46.48683 50044 ft 1205 kts 65°
2026-04-23 13:18 28.93224 46.57618 50346 ft 1214 kts 73°
2026-04-23 13:18 28.95181 46.67009 50771 ft 1220 kts 82°
2026-04-23 13:19 28.96014 46.76662 51153 ft 1223 kts 90°
2026-04-23 13:19 28.95685 46.86362 51701 ft 1224 kts 98°
2026-04-23 13:19 28.94190 46.95903 52474 ft 1219 kts 107°
2026-04-23 13:19 28.91693 47.05124 53314 ft 1216 kts 109°
2026-04-23 13:20 28.89526 47.14461 53965 ft 1221 kts 101°
2026-04-23 13:20 28.88461 47.24087 54570 ft 1226 kts 92°
2026-04-23 13:20 28.88539 47.33850 55129 ft 1229 kts 84°
2026-04-23 13:20 28.89767 47.43494 55713 ft 1229 kts 76°
2026-04-23 13:21 28.92122 47.52856 56323 ft 1227 kts 68°
2026-04-23 13:21 28.95519 47.61761 56726 ft 1223 kts 59°
2026-04-23 13:21 28.99902 47.70056 56961 ft 1219 kts 51°
2026-04-23 13:21 29.05202 47.77593 57113 ft 1214 kts 43°
2026-04-23 13:22 29.11259 47.84304 57198 ft 1211 kts 39°
2026-04-23 13:22 29.23458 47.97742 57109 ft 1223 kts 45°
2026-04-23 13:23 29.34521 48.12660 57042 ft 1236 kts 54°
2026-04-23 13:23 29.43042 48.29837 57098 ft 1243 kts 57°
2026-04-23 13:24 29.53367 48.45596 57254 ft 1232 kts 41°
2026-04-23 13:24 29.64361 48.55824 57298 ft 1219 kts 27°
2026-04-23 13:25 29.79589 48.63919 57336 ft 1200 kts 11°
2026-04-23 13:25 29.90346 48.66487 57342 ft 1185 kts
2026-04-23 13:25 29.95876 48.66904 57403 ft 1178 kts 355°
2026-04-23 13:25 30.06617 48.65973 57388 ft 1162 kts 344°
2026-04-23 13:26 30.14424 48.63762 57415 ft 1150 kts 336°
2026-04-23 13:26 30.26473 48.57328 57411 ft 1133 kts 323°
2026-04-23 13:27 30.39492 48.47241 57200 ft 1134 kts 321°
2026-04-23 13:27 30.45943 48.41979 57090 ft 1134 kts 321°
2026-04-23 13:27 30.52374 48.36687 57047 ft 1133 kts 321°
2026-04-23 13:27 30.58745 48.31486 56976 ft 1106 kts 324°
2026-04-23 13:28 30.65480 48.27097 56998 ft 1096 kts 331°
2026-04-23 13:28 30.72516 48.23764 56404 ft 1117 kts 338°
2026-04-23 13:28 30.79987 48.21114 56637 ft 1125 kts 341°
2026-04-23 13:28 30.87637 48.18864 56807 ft 1139 kts 343°
2026-04-23 13:29 30.95411 48.16911 56862 ft 1146 kts 344°
2026-04-23 13:29 31.11104 48.13330 56868 ft 1153 kts 345°
2026-04-23 13:30 31.27024 48.10470 56993 ft 1166 kts 354°
2026-04-23 13:30 31.35166 48.10661 57098 ft 1178 kts
2026-04-23 13:30 31.43290 48.12187 57232 ft 1189 kts 11°
2026-04-23 13:30 31.51237 48.15036 57269 ft 1200 kts 19°
2026-04-23 13:31 31.58849 48.19172 57290 ft 1211 kts 27°
2026-04-23 13:31 31.72443 48.30981 57374 ft 1228 kts 43°
2026-04-23 13:32 31.83023 48.46795 57346 ft 1240 kts 59°
2026-04-23 13:32 31.89773 48.65505 57385 ft 1247 kts 76°
2026-04-23 13:33 31.92162 48.85679 57389 ft 1247 kts 92°
2026-04-23 13:33 31.90221 49.05747 57279 ft 1244 kts 103°
2026-04-23 13:34 31.87701 49.25921 57233 ft 1249 kts 91°
2026-04-23 13:34 31.89496 49.46217 57324 ft 1250 kts 74°
2026-04-23 13:35 31.95710 49.65202 57401 ft 1244 kts 58°
2026-04-23 13:35 32.05865 49.81526 57478 ft 1232 kts 42°
2026-04-23 13:36 32.19177 49.93987 57552 ft 1216 kts 26°
2026-04-23 13:36 32.34590 50.01684 57553 ft 1197 kts 10°
2026-04-23 13:37 32.50935 50.04116 57589 ft 1176 kts 354°
2026-04-23 13:37 32.66914 50.01146 57625 ft 1155 kts 338°
2026-04-23 13:37 32.74364 49.97720 57615 ft 1144 kts 329°
2026-04-23 13:38 32.81314 49.93184 57584 ft 1138 kts 325°
2026-04-23 13:38 32.88064 49.88252 57413 ft 1139 kts 324°
2026-04-23 13:38 32.94840 49.83336 57348 ft 1142 kts 326°
2026-04-23 13:39 33.08761 49.74068 57218 ft 1149 kts 329°
2026-04-23 13:39 33.23228 49.66139 57149 ft 1158 kts 338°
2026-04-23 13:39 33.31022 49.63521 57270 ft 1166 kts 346°
2026-04-23 13:40 33.39085 49.62230 57343 ft 1175 kts 354°
2026-04-23 13:40 33.47287 49.62292 57450 ft 1184 kts
2026-04-23 13:40 33.55478 49.63649 57434 ft 1192 kts 10°
2026-04-23 13:41 33.71342 49.69769 57370 ft 1203 kts 18°
2026-04-23 13:41 33.87203 49.75955 57297 ft 1196 kts 13°
2026-04-23 13:42 34.03204 49.81616 57214 ft 1198 kts 14°
2026-04-23 13:42 34.19146 49.87571 57159 ft 1203 kts 20°
2026-04-23 13:43 34.33996 49.96746 57179 ft 1210 kts 27°
2026-04-23 13:43 34.48963 50.06293 57171 ft 1209 kts 27°
2026-04-23 13:44 34.63856 50.15726 57039 ft 1207 kts 25°
2026-04-23 13:44 34.78698 50.25027 56977 ft 1207 kts 25°
2026-04-23 13:45 34.93621 50.34441 56946 ft 1207 kts 25°
2026-04-23 13:45 35.08513 50.43882 56936 ft 1207 kts 25°
2026-04-23 13:46 35.23402 50.53364 56956 ft 1207 kts 25°
2026-04-23 13:46 35.38299 50.62890 56920 ft 1207 kts 25°
2026-04-23 13:47 35.53185 50.72449 56958 ft 1207 kts 25°
2026-04-23 13:47 35.68046 50.82034 56963 ft 1203 kts 25°
2026-04-23 13:48 35.82837 50.91612 56996 ft 1198 kts 25°
2026-04-23 13:48 35.97538 51.01173 57083 ft 1193 kts 26°
2026-04-23 13:49 36.12187 51.10742 57054 ft 1189 kts 26°
2026-04-23 13:49 36.26693 51.20255 57001 ft 1185 kts 26°
2026-04-23 13:50 36.41240 51.29837 56954 ft 1181 kts 26°
2026-04-23 13:50 36.48509 51.34641 56814 ft 1181 kts 26°
2026-04-23 13:50 36.55790 51.39462 56225 ft 1185 kts 26°
2026-04-23 13:50 36.63076 51.44298 55346 ft 1190 kts 26°
2026-04-23 13:51 36.70505 51.48949 54605 ft 1191 kts 20°
2026-04-23 13:51 36.78279 51.52419 54026 ft 1188 kts 13°
2026-04-23 13:51 36.86262 51.55191 53548 ft 1189 kts 13°
2026-04-23 13:52 37.01964 51.61725 53590 ft 1185 kts 17°
2026-04-23 13:52 37.17440 51.68463 53493 ft 1184 kts 17°
2026-04-23 13:52 37.25229 51.71867 53186 ft 1185 kts 17°
2026-04-23 13:53 37.33034 51.75270 52777 ft 1187 kts 17°
2026-04-23 13:53 37.40840 51.78679 52489 ft 1188 kts 17°
2026-04-23 13:53 37.48652 51.82089 52256 ft 1188 kts 17°
2026-04-23 13:53 37.56467 51.85498 52036 ft 1189 kts 17°
2026-04-23 13:54 37.64293 51.88910 51868 ft 1189 kts 17°
2026-04-23 13:54 37.72112 51.92317 51679 ft 1189 kts 17°
2026-04-23 13:54 37.79931 51.95723 51507 ft 1189 kts 17°
2026-04-23 13:54 37.87751 51.99127 51359 ft 1188 kts 17°
2026-04-23 13:55 37.95571 52.02530 51209 ft 1188 kts 17°
2026-04-23 13:55 38.03404 52.05937 51059 ft 1188 kts 17°
2026-04-23 13:55 38.11216 52.09335 51325 ft 1184 kts 17°
2026-04-23 13:55 38.18995 52.12725 52931 ft 1177 kts 17°
2026-04-23 13:56 38.26783 52.16124 54042 ft 1179 kts 17°
2026-04-23 13:56 38.34446 52.19470 54924 ft 1180 kts 17°
2026-04-23 13:56 38.42244 52.22877 55407 ft 1186 kts 17°
2026-04-23 13:56 38.50073 52.26295 55238 ft 1196 kts 17°
2026-04-23 13:57 38.57955 52.29732 56136 ft 1190 kts 17°
2026-04-23 13:57 38.65767 52.33145 58063 ft 1180 kts 17°
2026-04-23 13:57 38.72995 52.36308 59058 ft 1180 kts 17°
2026-04-23 13:57 38.80793 52.39718 58899 ft 1187 kts 17°
2026-04-23 13:58 38.88621 52.43138 58338 ft 1191 kts 17°
2026-04-23 13:58 38.96493 52.46574 57707 ft 1196 kts 17°
2026-04-23 13:58 39.04389 52.50018 57142 ft 1200 kts 17°
2026-04-23 13:58 39.12315 52.53474 56696 ft 1203 kts 17°
2026-04-23 13:59 39.20274 52.56942 56627 ft 1202 kts 17°
2026-04-23 13:59 39.36087 52.63830 56767 ft 1198 kts 17°
2026-04-23 14:00 39.49204 52.69543 56864 ft 1196 kts 17°
2026-04-23 14:00 39.67631 52.77563 56880 ft 1194 kts 17°
2026-04-23 14:01 39.82798 52.86045 56507 ft 1202 kts 31°
2026-04-23 14:01 39.89604 52.92374 56232 ft 1207 kts 40°
2026-04-23 14:01 39.95610 53.00010 56147 ft 1209 kts 50°
2026-04-23 14:02 40.04719 53.18368 56095 ft 1208 kts 64°
2026-04-23 14:02 40.08534 53.28141 56347 ft 1205 kts 61°
2026-04-23 14:02 40.12686 53.37658 56552 ft 1202 kts 58°
2026-04-23 14:03 40.22042 53.55729 56710 ft 1198 kts 52°
2026-04-23 14:03 40.32372 53.72827 56824 ft 1196 kts 50°
2026-04-23 14:04 40.42958 53.89681 56844 ft 1196 kts 49°
2026-04-23 14:04 40.48569 53.97730 56726 ft 1194 kts 41°
2026-04-23 14:04 40.54888 54.04805 56587 ft 1193 kts 34°
2026-04-23 14:04 40.61829 54.10753 56432 ft 1190 kts 26°
2026-04-23 14:05 40.69264 54.15466 56352 ft 1186 kts 19°
2026-04-23 14:05 40.77084 54.18890 56238 ft 1182 kts 11°
2026-04-23 14:05 40.85020 54.20974 55915 ft 1180 kts
2026-04-23 14:05 40.93198 54.21739 55371 ft 1178 kts 356°
2026-04-23 14:06 41.01370 54.21090 54885 ft 1176 kts 349°
2026-04-23 14:06 41.09384 54.18995 54645 ft 1170 kts 341°
2026-04-23 14:06 41.17037 54.15495 54803 ft 1161 kts 333°
2026-04-23 14:06 41.24430 54.11262 55408 ft 1156 kts 338°
2026-04-23 14:07 41.32144 54.08186 55785 ft 1159 kts 346°
2026-04-23 14:07 41.48295 54.06577 55338 ft 1175 kts
2026-04-23 14:07 41.56489 54.07259 54881 ft 1181 kts
2026-04-23 14:08 41.64706 54.07970 54453 ft 1184 kts
2026-04-23 14:08 41.72938 54.08585 54262 ft 1185 kts
2026-04-23 14:08 41.81176 54.09136 54421 ft 1183 kts
2026-04-23 14:08 41.89388 54.09634 54800 ft 1179 kts
2026-04-23 14:09 41.94806 54.09919 55088 ft 1175 kts 358°
2026-04-23 14:09 42.02967 54.09581 55258 ft 1168 kts 352°
2026-04-23 14:09 42.21812 54.07409 54644 ft 1174 kts 354°
2026-04-23 14:10 42.27332 54.06907 54297 ft 1177 kts 354°
2026-04-23 14:10 42.35525 54.06226 53813 ft 1181 kts 354°
2026-04-23 14:10 42.43728 54.05536 53594 ft 1182 kts 354°
2026-04-23 14:10 42.51933 54.04844 53697 ft 1180 kts 354°
2026-04-23 14:11 42.60134 54.04151 54089 ft 1176 kts 354°
2026-04-23 14:11 42.68275 54.03461 54546 ft 1171 kts 354°
2026-04-23 14:11 42.76327 54.02775 54757 ft 1169 kts 354°
2026-04-23 14:11 42.84456 54.02080 54598 ft 1170 kts 354°
2026-04-23 14:12 42.92588 54.01384 54041 ft 1175 kts 354°
2026-04-23 14:12 43.00770 54.00681 53307 ft 1181 kts 354°
2026-04-23 14:12 43.09002 53.99971 52815 ft 1184 kts 354°
2026-04-23 14:12 43.17232 53.99262 52809 ft 1183 kts 354°
2026-04-23 14:13 43.25419 53.98553 53366 ft 1176 kts 354°
2026-04-23 14:13 43.33567 53.97845 54186 ft 1168 kts 354°
2026-04-23 14:13 43.41661 53.97140 54719 ft 1164 kts 354°
2026-04-23 14:13 43.49736 53.96435 54634 ft 1165 kts 354°
2026-04-23 14:14 43.57848 53.95725 53951 ft 1171 kts 354°
2026-04-23 14:14 43.66015 53.95008 53175 ft 1177 kts 354°
2026-04-23 14:14 43.74117 53.94295 52482 ft 1183 kts 354°
2026-04-23 14:14 43.82359 53.93568 52116 ft 1185 kts 354°
2026-04-23 14:15 43.90595 53.92925 52384 ft 1183 kts 358°
2026-04-23 14:15 43.98800 53.93504 52874 ft 1182 kts
2026-04-23 14:15 44.06861 53.95756 53375 ft 1182 kts 15°
2026-04-23 14:15 44.14657 53.99448 53521 ft 1183 kts 20°
2026-04-23 14:16 44.22298 54.03749 53288 ft 1187 kts 21°
2026-04-23 14:16 44.29921 54.08255 52557 ft 1193 kts 22°
2026-04-23 14:16 44.37567 54.12858 51817 ft 1199 kts 22°
2026-04-23 14:16 44.45244 54.17502 51914 ft 1196 kts 22°
2026-04-23 14:17 44.52906 54.21952 52544 ft 1187 kts 17°
2026-04-23 14:17 44.60760 54.25347 53099 ft 1177 kts 14°
2026-04-23 14:17 44.68481 54.28758 53788 ft 1172 kts 16°
2026-04-23 14:17 44.76229 54.32214 54604 ft 1168 kts 16°
2026-04-23 14:18 44.83965 54.35746 55419 ft 1168 kts 16°
2026-04-23 14:18 44.91696 54.39268 56230 ft 1169 kts 16°
2026-04-23 14:18 44.99436 54.42808 56762 ft 1172 kts 16°
2026-04-23 14:18 45.07209 54.46373 56923 ft 1178 kts 16°
2026-04-23 14:19 45.15043 54.49975 56743 ft 1186 kts 16°
2026-04-23 14:19 45.22903 54.53599 56788 ft 1191 kts 16°
2026-04-23 14:19 45.30801 54.57252 56903 ft 1196 kts 16°
2026-04-23 14:19 45.38707 54.60919 56885 ft 1194 kts 16°
2026-04-23 14:20 45.54476 54.68264 56863 ft 1190 kts 16°
2026-04-23 14:20 45.70188 54.75626 56888 ft 1187 kts 16°
2026-04-23 14:21 45.85869 54.83017 56884 ft 1184 kts 16°
2026-04-23 14:21 46.01510 54.90433 56887 ft 1182 kts 16°
2026-04-23 14:22 46.17109 54.97873 56697 ft 1181 kts 17°
2026-04-23 14:22 46.32681 55.05346 56849 ft 1177 kts 17°
2026-04-23 14:23 46.48239 55.12856 56919 ft 1184 kts 17°
2026-04-23 14:23 46.63965 55.20493 56890 ft 1196 kts 17°
2026-04-23 14:24 46.79735 55.28188 56903 ft 1193 kts 17°
2026-04-23 14:24 46.95295 55.36133 56877 ft 1189 kts 18°
2026-04-23 14:25 47.10885 55.44175 56929 ft 1186 kts 18°
2026-04-23 14:25 47.26423 55.52233 56890 ft 1183 kts 18°
2026-04-23 14:26 47.34186 55.56277 56598 ft 1185 kts 18°
2026-04-23 14:26 47.41990 55.60355 56416 ft 1185 kts 18°
2026-04-23 14:26 47.49772 55.64436 56151 ft 1186 kts 18°
2026-04-23 14:26 47.57563 55.68533 55684 ft 1189 kts 18°
2026-04-23 14:27 47.65365 55.72649 54953 ft 1194 kts 18°
2026-04-23 14:27 47.73206 55.76799 54148 ft 1199 kts 18°
2026-04-23 14:27 47.81096 55.80989 53471 ft 1203 kts 18°
2026-04-23 14:27 47.88884 55.85138 53173 ft 1204 kts 18°
2026-04-23 14:28 47.96758 55.89346 53373 ft 1200 kts 18°
2026-04-23 14:28 48.04589 55.93544 53870 ft 1194 kts 18°
2026-04-23 14:28 48.12424 55.97758 54378 ft 1196 kts 18°
2026-04-23 14:28 48.20265 56.01989 54722 ft 1200 kts 18°
2026-04-23 14:29 48.28122 56.06243 55154 ft 1202 kts 18°
2026-04-23 14:29 48.36002 56.10523 55779 ft 1203 kts 18°
2026-04-23 14:29 48.43872 56.14812 56372 ft 1204 kts 18°
2026-04-23 14:29 48.51744 56.19117 56693 ft 1202 kts 18°
2026-04-23 14:30 48.59594 56.23423 56889 ft 1198 kts 18°
2026-04-23 14:30 48.67415 56.27728 56919 ft 1196 kts 18°
2026-04-23 14:30 48.82958 56.36324 56896 ft 1192 kts 18°
2026-04-23 14:31 48.98430 56.44939 56599 ft 1177 kts 18°
2026-04-23 14:31 49.06134 56.49249 55854 ft 1182 kts 19°
2026-04-23 14:31 49.13875 56.53596 55043 ft 1188 kts 19°
2026-04-23 14:32 49.21660 56.57981 54227 ft 1194 kts 19°
2026-04-23 14:32 49.29469 56.62395 53428 ft 1198 kts 19°
2026-04-23 14:32 49.37276 56.66823 52641 ft 1197 kts 19°
2026-04-23 14:32 49.45085 56.71267 51965 ft 1195 kts 19°
2026-04-23 14:33 49.52875 56.75714 51439 ft 1194 kts 19°
2026-04-23 14:33 49.60663 56.80176 51119 ft 1193 kts 19°
2026-04-23 14:33 49.76322 56.88498 50989 ft 1188 kts 15°
2026-04-23 14:34 49.92024 56.96495 51178 ft 1185 kts 17°
2026-04-23 14:34 50.07671 57.04564 50949 ft 1186 kts 17°
2026-04-23 14:35 50.15524 57.08621 50675 ft 1188 kts 17°
2026-04-23 14:35 50.23344 57.12673 51268 ft 1181 kts 17°
2026-04-23 14:35 50.31122 57.16717 52052 ft 1174 kts 17°
2026-04-23 14:35 50.38860 57.20752 52864 ft 1167 kts 17°
2026-04-23 14:36 50.46549 57.24775 53680 ft 1159 kts 17°
2026-04-23 14:36 50.54162 57.28772 54555 ft 1152 kts 17°
2026-04-23 14:36 50.61651 57.32718 55391 ft 1145 kts 17°
2026-04-23 14:36 50.69180 57.36697 56220 ft 1138 kts 17°
2026-04-23 14:37 50.76774 57.40725 56746 ft 1135 kts 17°
2026-04-23 14:37 50.84152 57.44651 56926 ft 1134 kts 17°
2026-04-23 14:37 50.99133 57.52664 56884 ft 1136 kts 17°
2026-04-23 14:38 51.14117 57.60734 56859 ft 1137 kts 17°
2026-04-23 14:38 51.29106 57.68862 56841 ft 1138 kts 18°
2026-04-23 14:39 51.44244 57.76337 56738 ft 1138 kts 16°
2026-04-23 14:39 51.59394 57.83732 56812 ft 1138 kts 15°
2026-04-23 14:40 51.74568 57.91153 56786 ft 1139 kts 15°
2026-04-23 14:40 51.89732 57.98617 56799 ft 1139 kts 16°
2026-04-23 14:41 52.04893 58.06131 56772 ft 1139 kts 16°
2026-04-23 14:41 52.19952 58.13646 56761 ft 1139 kts 16°
2026-04-23 14:42 52.35106 58.21263 56751 ft 1139 kts 16°
2026-04-23 14:42 52.50276 58.28943 56774 ft 1139 kts 16°
2026-04-23 14:43 52.65426 58.36668 56753 ft 1140 kts 16°
2026-04-23 14:43 52.80586 58.44455 56719 ft 1140 kts 16°
2026-04-23 14:44 52.95758 58.52306 56713 ft 1140 kts 16°
2026-04-23 14:44 53.10873 58.60185 56690 ft 1140 kts 16°
2026-04-23 14:45 53.26015 58.68135 56700 ft 1140 kts 17°
2026-04-23 14:45 53.41052 58.76129 56680 ft 1140 kts 15°
2026-04-23 14:46 53.56261 58.83654 56674 ft 1140 kts 15°
2026-04-23 14:46 53.71473 58.91271 56671 ft 1140 kts 15°
2026-04-23 14:47 53.86682 58.98957 56699 ft 1140 kts 15°
2026-04-23 14:47 54.01885 59.06700 56646 ft 1141 kts 15°
2026-04-23 14:48 54.17085 59.14501 56683 ft 1141 kts 15°
2026-04-23 14:48 54.32312 59.22375 56635 ft 1141 kts 16°
2026-04-23 14:49 54.47514 59.30298 56615 ft 1142 kts 16°
2026-04-23 14:49 54.62718 59.38283 56634 ft 1142 kts 16°
2026-04-23 14:50 54.77903 59.46321 56611 ft 1141 kts 16°
2026-04-23 14:50 54.93097 59.54428 56638 ft 1141 kts 16°
2026-04-23 14:51 55.08268 59.62586 56599 ft 1141 kts 16°
2026-04-23 14:51 55.23341 59.70710 56617 ft 1140 kts 13°
2026-04-23 14:52 55.31091 59.73613 56443 ft 1139 kts
2026-04-23 14:52 55.38863 59.76293 56413 ft 1140 kts 13°
2026-04-23 14:52 55.54289 59.82698 56555 ft 1138 kts 12°
2026-04-23 14:53 55.69728 59.89058 56612 ft 1137 kts 12°
2026-04-23 14:53 55.85148 59.95460 56601 ft 1137 kts 12°
2026-04-23 14:54 56.00246 60.03886 56337 ft 1142 kts 26°
2026-04-23 14:54 56.04905 60.08253 56221 ft 1143 kts 31°
2026-04-23 14:54 56.11593 60.15953 56309 ft 1143 kts 34°
2026-04-23 14:55 56.18151 60.24012 56489 ft 1141 kts 33°
2026-04-23 14:55 56.24950 60.31293 56428 ft 1140 kts 26°
2026-04-23 14:55 56.38883 60.44970 56454 ft 1139 kts 27°
2026-04-23 14:56 56.52798 60.58660 56569 ft 1137 kts 28°
2026-04-23 14:56 56.66599 60.72704 56581 ft 1137 kts 28°
2026-04-23 14:57 56.80388 60.86835 56590 ft 1137 kts 29°
2026-04-23 14:57 56.93903 61.01013 56553 ft 1138 kts 32°
2026-04-23 14:58 57.07440 61.16072 56569 ft 1137 kts 31°
2026-04-23 14:58 57.20983 61.31158 56626 ft 1137 kts 31°
2026-04-23 14:59 57.34512 61.46372 56614 ft 1137 kts 31°
2026-04-23 14:59 57.47950 61.61624 55848 ft 1145 kts 31°
2026-04-23 15:00 57.54774 61.69422 55065 ft 1152 kts 31°
2026-04-23 15:00 57.61568 61.77228 54218 ft 1133 kts 32°
2026-04-23 15:00 57.67905 61.85652 53181 ft 1107 kts 40°
2026-04-23 15:00 57.73427 61.95449 52038 ft 1082 kts 47°
2026-04-23 15:01 57.78414 62.05761 51132 ft 1055 kts 49°
2026-04-23 15:01 57.83369 62.15647 50208 ft 1027 kts 44°
2026-04-23 15:01 57.88374 62.24985 49315 ft 999 kts 45°
2026-04-23 15:01 57.93238 62.34059 48487 ft 969 kts 44°
2026-04-23 15:02 57.97953 62.42840 47671 ft 938 kts 44°
2026-04-23 15:02 58.02510 62.51361 46852 ft 905 kts 44°
2026-04-23 15:02 58.06888 62.59584 46065 ft 871 kts 44°
2026-04-23 15:02 58.11136 62.67592 45258 ft 854 kts 45°
2026-04-23 15:03 58.15305 62.75482 44803 ft 840 kts 45°
2026-04-23 15:03 58.19420 62.83299 44700 ft 836 kts 45°
2026-04-23 15:03 58.27541 62.98808 44673 ft 831 kts 45°
2026-04-23 15:04 58.35643 63.14388 44676 ft 826 kts 45°
2026-04-23 15:04 58.43682 63.29955 44678 ft 821 kts 45°
2026-04-23 15:05 58.51650 63.45490 44684 ft 817 kts 45°
2026-04-23 15:05 58.59577 63.61054 44686 ft 813 kts 45°
2026-04-23 15:06 58.67410 63.76538 44482 ft 788 kts 45°
2026-04-23 15:06 58.71136 63.83947 43686 ft 755 kts 45°
2026-04-23 15:06 58.74715 63.91069 42865 ft 724 kts 45°
2026-04-23 15:07 58.78146 63.97919 42070 ft 698 kts 45°
2026-04-23 15:07 58.81485 64.04605 41305 ft 685 kts 45°
2026-04-23 15:07 58.84763 64.11191 40565 ft 676 kts 45°
2026-04-23 15:07 58.88002 64.17716 39856 ft 668 kts 46°
2026-04-23 15:08 58.91201 64.24179 39167 ft 661 kts 46°
2026-04-23 15:08 58.94360 64.30580 38508 ft 654 kts 46°
2026-04-23 15:08 58.97482 64.36924 37728 ft 648 kts 46°
2026-04-23 15:09 59.03609 64.49425 36167 ft 630 kts 46°
2026-04-23 15:09 59.06599 64.55551 35423 ft 618 kts 46°
2026-04-23 15:09 59.09533 64.61579 34708 ft 610 kts 46°
2026-04-23 15:09 59.12430 64.67545 34028 ft 604 kts 46°
2026-04-23 15:10 59.14337 64.71481 33541 ft 602 kts 46°
2026-04-23 15:10 59.18148 64.79367 32466 ft 591 kts 46°
2026-04-23 15:10 59.20930 64.85151 31670 ft 579 kts 46°
2026-04-23 15:10 59.23624 64.90761 30908 ft 568 kts 46°
2026-04-23 15:11 59.26299 64.96323 30173 ft 555 kts 46°
2026-04-23 15:11 59.28904 65.01770 29811 ft 543 kts 47°
2026-04-23 15:11 59.31476 65.07166 29105 ft 542 kts 47°
2026-04-23 15:11 59.34040 65.12560 28352 ft 538 kts 47°
2026-04-23 15:12 59.36573 65.17897 27628 ft 532 kts 47°
2026-04-23 15:12 59.39082 65.23193 26942 ft 527 kts 47°
2026-04-23 15:12 59.41565 65.28448 26256 ft 523 kts 47°
2026-04-23 15:12 59.44024 65.33664 25580 ft 518 kts 47°
2026-04-23 15:13 59.46462 65.38849 24929 ft 514 kts 47°
2026-04-23 15:13 59.48879 65.43997 24294 ft 510 kts 47°
2026-04-23 15:13 59.51291 65.49147 23667 ft 506 kts 47°
2026-04-23 15:13 59.53665 65.54228 23009 ft 502 kts 47°
2026-04-23 15:14 59.56020 65.59280 22288 ft 498 kts 47°
2026-04-23 15:14 59.58347 65.64282 21688 ft 491 kts 47°
2026-04-23 15:14 59.60641 65.69227 21104 ft 487 kts 47°
2026-04-23 15:14 59.62927 65.74162 20528 ft 484 kts 47°
2026-04-23 15:15 59.65155 65.78984 20128 ft 479 kts 47°
2026-04-23 15:15 59.67385 65.83825 19930 ft 473 kts 46°
2026-04-23 15:15 59.69594 65.88580 19847 ft 466 kts 45°
2026-04-23 15:15 59.71788 65.93334 19810 ft 467 kts 47°
2026-04-23 15:16 59.73927 65.98189 19783 ft 468 kts 48°
2026-04-23 15:16 59.76035 66.03018 19766 ft 451 kts 48°
2026-04-23 15:16 59.78022 66.07565 19749 ft 423 kts 47°
2026-04-23 15:16 59.79928 66.11914 19747 ft 413 kts 47°
2026-04-23 15:17 59.81816 66.16218 19746 ft 413 kts 47°
2026-04-23 15:17 59.83701 66.20528 19744 ft 415 kts 47°
2026-04-23 15:17 59.85598 66.24880 19745 ft 415 kts 48°
2026-04-23 15:17 59.87487 66.29222 19751 ft 415 kts 47°
2026-04-23 15:18 59.89376 66.33580 19755 ft 418 kts 47°
2026-04-23 15:18 59.91287 66.37981 19629 ft 421 kts 47°
2026-04-23 15:18 59.93198 66.42390 19470 ft 420 kts 47°
2026-04-23 15:18 59.95109 66.46815 19307 ft 419 kts 47°
2026-04-23 15:19 59.97007 66.51219 19145 ft 419 kts 47°
2026-04-23 15:19 59.98907 66.55635 18983 ft 418 kts 47°
2026-04-23 15:19 60.00740 66.60138 18814 ft 419 kts 58°
2026-04-23 15:19 60.01826 66.65520 18594 ft 421 kts 82°
2026-04-23 15:20 60.02023 66.69375 18479 ft 420 kts 89°
2026-04-23 15:20 60.01966 66.77139 18281 ft 417 kts 97°
2026-04-23 15:20 60.01680 66.82914 18129 ft 416 kts 98°
2026-04-23 15:20 60.01344 66.88663 17991 ft 416 kts 98°
2026-04-23 15:21 60.00998 66.94324 17827 ft 417 kts 98°
2026-04-23 15:21 60.00649 67.00073 17655 ft 417 kts 98°
2026-04-23 15:21 60.00304 67.05824 17482 ft 416 kts 98°
2026-04-23 15:21 59.99958 67.11555 17310 ft 415 kts 98°
2026-04-23 15:22 59.99611 67.17269 17138 ft 413 kts 98°
2026-04-23 15:22 59.99262 67.22958 16954 ft 412 kts 98°
2026-04-23 15:22 59.98911 67.28639 16790 ft 411 kts 98°
2026-04-23 15:22 59.98559 67.34292 16619 ft 410 kts 98°
2026-04-23 15:23 59.98206 67.39949 16424 ft 409 kts 99°
2026-04-23 15:23 59.97850 67.45596 16255 ft 410 kts 99°
2026-04-23 15:23 59.97491 67.51231 16080 ft 406 kts 99°
2026-04-23 15:23 59.97144 67.56685 15907 ft 387 kts 99°
2026-04-23 15:24 59.96813 67.61833 15741 ft 370 kts 99°
2026-04-23 15:24 59.96489 67.66815 15565 ft 355 kts 99°
2026-04-23 15:24 59.96173 67.71641 15408 ft 348 kts 99°
2026-04-23 15:24 59.95858 67.76431 15252 ft 348 kts 99°
2026-04-23 15:25 59.95544 67.81219 15085 ft 348 kts 99°
2026-04-23 15:25 59.95228 67.86005 14934 ft 347 kts 99°
2026-04-23 15:25 59.94910 67.90773 14766 ft 346 kts 99°
2026-04-23 15:25 59.94592 67.95523 14606 ft 345 kts 99°
2026-04-23 15:26 59.94274 68.00252 14446 ft 344 kts 99°
2026-04-23 15:26 59.93954 68.04971 14286 ft 343 kts 99°
2026-04-23 15:26 59.93633 68.09685 14113 ft 342 kts 103°
2026-04-23 15:26 59.92730 68.13839 13821 ft 324 kts 160°
2026-04-23 15:27 59.90716 68.13845 13152 ft 293 kts 204°
2026-04-23 15:27 59.88680 68.13562 12779 ft 305 kts 182°
2026-04-23 15:27 59.86644 68.13413 12672 ft 285 kts 202°
2026-04-23 15:27 59.84645 68.13045 12445 ft 301 kts 178°
2026-04-23 15:28 59.82665 68.14656 12054 ft 317 kts 148°
2026-04-23 15:28 59.81239 68.18030 11632 ft 326 kts 119°
2026-04-23 15:28 59.80727 68.22433 11222 ft 332 kts 90°
2026-04-23 15:28 59.81254 68.26836 10847 ft 327 kts 60°
2026-04-23 15:29 59.82680 68.30206 10467 ft 315 kts 31°
2026-04-23 15:29 59.84636 68.31783 10102 ft 297 kts
2026-04-23 15:29 59.86640 68.31618 9878 ft 283 kts 351°
2026-04-23 15:29 59.88595 68.31298 9813 ft 285 kts
2026-04-23 15:30 59.90518 68.32303 9790 ft 294 kts 21°
2026-04-23 15:30 59.92396 68.33982 9749 ft 297 kts 23°
2026-04-23 15:30 59.94257 68.35773 9712 ft 297 kts 24°
2026-04-23 15:30 59.96110 68.37603 9670 ft 297 kts 24°
2026-04-23 15:31 59.97985 68.39319 9597 ft 296 kts 20°
2026-04-23 15:31 59.99897 68.40831 9537 ft 295 kts 18°
2026-04-23 15:31 60.01815 68.42242 9478 ft 293 kts 17°
2026-04-23 15:31 60.03733 68.43619 9418 ft 293 kts 17°
2026-04-23 15:32 60.05654 68.45000 9356 ft 293 kts 18°
2026-04-23 15:32 60.07569 68.46395 9300 ft 293 kts 18°
2026-04-23 15:32 60.09483 68.47808 9258 ft 293 kts 18°
2026-04-23 15:32 60.11393 68.49225 9214 ft 293 kts 18°
2026-04-23 15:33 60.13303 68.50646 9159 ft 293 kts 18°
2026-04-23 15:33 60.15216 68.52070 9109 ft 292 kts 18°
2026-04-23 15:33 60.17122 68.53489 9062 ft 292 kts 18°
2026-04-23 15:33 60.19025 68.54907 9017 ft 292 kts 18°
2026-04-23 15:34 60.20918 68.56312 8988 ft 287 kts 19°
2026-04-23 15:34 60.22791 68.57713 8946 ft 287 kts 19°
2026-04-23 15:34 60.24637 68.59097 8893 ft 287 kts 19°
2026-04-23 15:34 60.26512 68.60502 8851 ft 287 kts 19°
2026-04-23 15:35 60.28384 68.61906 8804 ft 287 kts 19°
2026-04-23 15:35 60.30252 68.63306 8762 ft 286 kts 19°
2026-04-23 15:35 60.32118 68.64707 8717 ft 286 kts 19°
2026-04-23 15:35 60.33985 68.66111 8672 ft 286 kts 19°
2026-04-23 15:36 60.35850 68.67515 8617 ft 286 kts 19°
2026-04-23 15:36 60.37713 68.68921 8587 ft 286 kts 19°
2026-04-23 15:36 60.39578 68.70329 8546 ft 286 kts 19°
2026-04-23 15:36 60.41441 68.71737 8503 ft 285 kts 19°
2026-04-23 15:37 60.43302 68.73147 8457 ft 285 kts 19°
2026-04-23 15:37 60.45162 68.74555 8423 ft 285 kts 19°
2026-04-23 15:37 60.46392 68.75489 8400 ft 285 kts 19°
2026-04-23 15:37 60.48864 68.77442 8342 ft 285 kts 19°
2026-04-23 15:38 60.50728 68.78799 8287 ft 284 kts 17°
2026-04-23 15:38 60.52608 68.80032 8241 ft 283 kts 16°
2026-04-23 15:38 60.53857 68.80819 8210 ft 283 kts 16°
2026-04-23 15:38 60.55736 68.81993 8164 ft 282 kts 16°
2026-04-23 15:39 60.57610 68.83195 8137 ft 283 kts 18°
2026-04-23 15:39 60.59451 68.84614 8117 ft 283 kts 21°
2026-04-23 15:39 60.61279 68.86174 8082 ft 284 kts 22°
2026-04-23 15:39 60.63072 68.87914 8070 ft 285 kts 26°
2026-04-23 15:40 60.64803 68.89802 8040 ft 286 kts 28°
2026-04-23 15:40 60.66537 68.91794 8016 ft 286 kts 29°
2026-04-23 15:40 60.68266 68.93813 7981 ft 286 kts 29°
2026-04-23 15:40 60.69994 68.95823 7870 ft 286 kts 28°
2026-04-23 15:41 60.71724 68.97815 7767 ft 284 kts 28°
2026-04-23 15:41 60.73440 68.99796 7702 ft 283 kts 28°
2026-04-23 15:41 60.75151 69.01774 7658 ft 283 kts 28°
2026-04-23 15:41 60.76860 69.03753 7640 ft 282 kts 28°
2026-04-23 15:42 60.78576 69.05739 7617 ft 283 kts 28°
2026-04-23 15:42 60.80290 69.07724 7608 ft 284 kts 28°
2026-04-23 15:42 60.82010 69.09711 7606 ft 284 kts 28°
2026-04-23 15:42 60.83770 69.11750 7661 ft 289 kts 28°
2026-04-23 15:43 60.85484 69.13746 7657 ft 283 kts 28°
2026-04-23 15:43 60.87210 69.15754 7540 ft 287 kts 28°
2026-04-23 15:43 60.88943 69.17773 7342 ft 284 kts 28°
2026-04-23 15:43 60.90743 69.19241 7078 ft 276 kts
2026-04-23 15:44 60.92567 69.18613 6796 ft 263 kts 329°
2026-04-23 15:44 60.93999 69.16393 6702 ft 254 kts 321°
2026-04-23 15:44 60.95600 69.14622 5809 ft 276 kts 353°
2026-04-23 15:44 60.97402 69.15289 5842 ft 256 kts 31°
2026-04-23 15:45 60.98647 69.17811 5207 ft 262 kts 62°
2026-04-23 15:45 60.99012 69.21600 4287 ft 280 kts 101°
2026-04-23 15:45 60.98841 69.25534 3475 ft 281 kts 88°
2026-04-23 15:45 60.99544 69.29558 2075 ft 309 kts 52°
2026-04-23 15:46 61.01116 69.32373 1403 ft 299 kts 24°
2026-04-23 15:46 61.03046 69.33072 1308 ft 267 kts 350°
2026-04-23 15:46 61.04684 69.31744 1016 ft 245 kts 315°
2026-04-23 15:46 61.05435 69.29047 1387 ft 201 kts 275°
2026-04-23 15:47 61.05125 69.26476 1361 ft 179 kts 239°
2026-04-23 15:47 61.04490 69.24521 1230 ft 156 kts 262°
2026-04-23 15:47 61.04392 69.22252 880 ft 167 kts 266°
2026-04-23 15:47 61.04273 69.19845 1050 ft 171 kts 255°
2026-04-23 15:48 61.03973 69.17429 828 ft 177 kts 257°
2026-04-23 15:48 61.03682 69.15041 538 ft 165 kts 254°
2026-04-23 15:48 61.03400 69.12849 312 ft 158 kts 253°
2026-04-23 15:48 61.03120 69.10627 167 ft 154 kts 256°
2026-04-23 15:49 61.02900 69.08930 157 ft 83 kts 254°
2026-04-23 15:49 61.02803 69.08191 153 ft 40 kts 255°
2026-04-23 15:49 61.02737 69.07682 154 ft 34 kts 255°
2026-04-23 15:49 61.02683 69.07299 152 ft 21 kts 243°
2026-04-23 15:50 61.02589 69.07274 153 ft 11 kts 152°
2026-04-23 15:50 61.02544 69.07401 153 ft 12 kts 110°
2026-04-23 15:50 61.02555 69.07584 154 ft 14 kts 77°
2026-04-23 15:50 61.02579 69.07806 154 ft 17 kts 77°
2026-04-23 15:51 61.02607 69.08014 154 ft 11 kts 75°
2026-04-23 15:51 61.02613 69.08065 154 ft 0 kts 74°
2026-04-23 15:51 61.02619 69.08106 154 ft 8 kts 73°
2026-04-23 15:52 61.02643 69.08301 155 ft 20 kts 75°
2026-04-23 15:52 61.02687 69.08650 155 ft 28 kts 76°
2026-04-23 15:52 61.02700 69.08946 155 ft 10 kts 135°
2026-04-23 15:52 61.02653 69.08997 155 ft 6 kts 152°
2026-04-23 15:53 61.02640 69.09035 155 ft 1 kts 117°
2026-04-23 15:53 61.02643 69.09053 155 ft 3 kts 91°
2026-04-23 15:53 61.02644 69.09070 155 ft 2 kts 83°
2026-04-23 15:53 61.02644 69.09065 155 ft 0 kts 83°